Time,TemperatureF,DewpointF,PressureIn,WindDirection,WindDirectionDegrees,WindSpeedMPH,WindSpeedGustMPH,Humidity,HourlyPrecipIn,Conditions,Clouds,dailyrainin,SoftwareType,DateUTC
2013-06-04 00:02:00,68.4,61.3,29.98,WNW,293,0.4,0.4,78,0.00,,,0.77,WUHU216HW,2013-06-04 04:02:00,
2013-06-04 00:07:00,68.4,61.3,29.98,WNW,293,0.4,0.4,78,0.00,,,0.77,WUHU216HW,2013-06-04 04:07:00,
2013-06-04 00:30:00,67.3,61.0,29.97,WNW,293,0.4,0.4,80,0.00,,,0.00,WUHU216HW,2013-06-04 04:30:00,
2013-06-04 00:37:00,67.3,61.0,29.97,WNW,293,0.4,0.4,80,0.00,,,0.00,WUHU216HW,2013-06-04 04:37:00,
2013-06-04 00:59:00,67.3,61.0,29.98,NW,315,0.4,0.4,80,0.00,,,0.00,WUHU216HW,2013-06-04 04:59:00,
2013-06-04 01:02:00,67.3,61.0,29.98,NW,315,0.4,0.4,80,0.00,,,0.00,WUHU216HW,2013-06-04 05:02:00,
2013-06-04 01:07:00,67.3,61.0,29.98,NW,315,0.4,0.4,80,0.00,,,0.00,WUHU216HW,2013-06-04 05:07:00,
2013-06-04 01:29:00,66.2,59.6,29.97,WNW,293,0.0,0.0,79,0.00,,,0.00,WUHU216HW,2013-06-04 05:29:00,
2013-06-04 01:32:00,66.2,59.6,29.97,WNW,293,0.0,0.0,79,0.00,,,0.00,WUHU216HW,2013-06-04 05:32:00,
2013-06-04 01:37:00,66.2,59.6,29.97,WNW,293,0.0,0.0,79,0.00,,,0.00,WUHU216HW,2013-06-04 05:37:00,
2013-06-04 02:00:00,66.8,60.1,29.97,WSW,248,0.0,0.0,79,0.00,,,0.00,WUHU216HW,2013-06-04 06:00:00,
2013-06-04 02:02:00,66.8,60.1,29.97,WSW,248,0.0,0.0,79,0.00,,,0.00,WUHU216HW,2013-06-04 06:02:00,
2013-06-04 02:07:00,66.8,60.1,29.97,WSW,248,0.0,0.0,79,0.00,,,0.00,WUHU216HW,2013-06-04 06:07:00,
2013-06-04 02:30:00,67.5,60.9,29.97,NW,315,1.8,1.8,79,0.00,,,0.00,WUHU216HW,2013-06-04 06:30:00,
2013-06-04 02:32:00,67.5,60.9,29.97,NW,315,1.8,1.8,79,0.00,,,0.00,WUHU216HW,2013-06-04 06:32:00,
2013-06-04 02:37:00,67.5,60.9,29.97,NW,315,1.8,1.8,79,0.00,,,0.00,WUHU216HW,2013-06-04 06:37:00,
2013-06-04 03:00:00,67.3,61.0,29.97,NW,315,0.0,0.0,80,0.00,,,0.00,WUHU216HW,2013-06-04 07:00:00,
2013-06-04 03:02:00,67.3,61.0,29.97,NW,315,0.0,0.0,80,0.00,,,0.00,WUHU216HW,2013-06-04 07:02:00,
2013-06-04 03:07:00,67.3,61.0,29.97,NW,315,0.0,0.0,80,0.00,,,0.00,WUHU216HW,2013-06-04 07:07:00,
2013-06-04 03:30:00,66.1,60.1,29.96,West,270,0.8,0.8,81,0.00,,,0.00,WUHU216HW,2013-06-04 07:30:00,
2013-06-04 03:32:00,66.1,60.1,29.96,West,270,0.8,0.8,81,0.00,,,0.00,WUHU216HW,2013-06-04 07:32:00,
2013-06-04 03:37:00,66.1,60.1,29.96,West,270,0.8,0.8,81,0.00,,,0.00,WUHU216HW,2013-06-04 07:37:00,
2013-06-04 04:00:00,66.6,60.7,29.96,NW,315,1.8,1.8,81,0.00,,,0.00,WUHU216HW,2013-06-04 08:00:00,
2013-06-04 04:02:00,66.6,60.7,29.96,NW,315,1.8,1.8,81,0.00,,,0.00,WUHU216HW,2013-06-04 08:02:00,
2013-06-04 04:07:00,66.6,60.7,29.96,NW,315,1.8,1.8,81,0.00,,,0.00,WUHU216HW,2013-06-04 08:07:00,
2013-06-04 04:30:00,66.1,60.4,29.97,NW,315,0.8,0.8,82,0.00,,,0.00,WUHU216HW,2013-06-04 08:30:00,
2013-06-04 04:32:00,66.1,60.4,29.97,NW,315,0.8,0.8,82,0.00,,,0.00,WUHU216HW,2013-06-04 08:32:00,
2013-06-04 04:37:00,66.1,60.4,29.97,NW,315,0.8,0.8,82,0.00,,,0.00,WUHU216HW,2013-06-04 08:37:00,
2013-06-04 05:00:00,66.6,60.7,29.97,NNW,338,0.0,0.0,81,0.00,,,0.00,WUHU216HW,2013-06-04 09:00:00,
2013-06-04 05:02:00,66.6,60.7,29.97,NNW,338,0.0,0.0,81,0.00,,,0.00,WUHU216HW,2013-06-04 09:02:00,
2013-06-04 05:07:00,66.6,60.7,29.97,NNW,338,0.0,0.0,81,0.00,,,0.00,WUHU216HW,2013-06-04 09:07:00,
2013-06-04 05:30:00,65.7,59.4,29.98,West,270,0.0,0.0,80,0.00,,,0.00,WUHU216HW,2013-06-04 09:30:00,
2013-06-04 05:32:00,65.7,59.4,29.98,West,270,0.0,0.0,80,0.00,,,0.00,WUHU216HW,2013-06-04 09:32:00,
2013-06-04 05:37:00,65.7,59.4,29.98,West,270,0.0,0.0,80,0.00,,,0.00,WUHU216HW,2013-06-04 09:37:00,
2013-06-04 06:00:00,65.9,59.6,30.00,North,0,0.0,0.0,80,0.00,,,0.00,WUHU216HW,2013-06-04 10:00:00,
2013-06-04 06:02:00,65.9,59.6,30.00,North,0,0.0,0.0,80,0.00,,,0.00,WUHU216HW,2013-06-04 10:02:00,
2013-06-04 06:07:00,65.9,59.6,30.00,North,0,0.0,0.0,80,0.00,,,0.00,WUHU216HW,2013-06-04 10:07:00,
2013-06-04 06:30:00,65.5,59.6,30.00,North,0,0.0,0.0,81,0.00,,,0.00,WUHU216HW,2013-06-04 10:30:00,
2013-06-04 06:32:00,65.5,59.6,30.00,North,0,0.0,0.0,81,0.00,,,0.00,WUHU216HW,2013-06-04 10:32:00,
2013-06-04 06:37:00,65.5,59.6,30.00,North,0,0.0,0.0,81,0.00,,,0.00,WUHU216HW,2013-06-04 10:37:00,
2013-06-04 06:59:00,65.7,59.8,30.02,NNW,338,0.0,0.0,81,0.00,,,0.00,WUHU216HW,2013-06-04 10:59:00,
2013-06-04 07:02:00,65.7,59.8,30.02,NNW,338,0.0,0.0,81,0.00,,,0.00,WUHU216HW,2013-06-04 11:02:00,
2013-06-04 07:07:00,65.7,59.8,30.02,NNW,338,0.0,0.0,81,0.00,,,0.00,WUHU216HW,2013-06-04 11:07:00,
2013-06-04 07:30:00,67.7,61.8,30.03,NNE,23,0.4,0.4,81,0.00,,,0.00,WUHU216HW,2013-06-04 11:30:00,
2013-06-04 07:32:00,67.7,61.8,30.03,NNE,23,0.4,0.4,81,0.00,,,0.00,WUHU216HW,2013-06-04 11:32:00,
2013-06-04 07:37:00,67.7,61.8,30.03,NNE,23,0.4,0.4,81,0.00,,,0.00,WUHU216HW,2013-06-04 11:37:00,
2013-06-04 07:59:00,67.3,61.4,30.03,South,180,0.8,0.8,81,0.00,,,0.00,WUHU216HW,2013-06-04 11:59:00,
2013-06-04 08:02:00,67.3,61.4,30.03,South,180,0.8,0.8,81,0.00,,,0.00,WUHU216HW,2013-06-04 12:02:00,
2013-06-04 08:07:00,67.3,61.4,30.03,South,180,0.8,0.8,81,0.00,,,0.00,WUHU216HW,2013-06-04 12:07:00,
2013-06-04 08:30:00,68.4,62.1,30.04,NNW,338,0.0,0.0,80,0.00,,,0.00,WUHU216HW,2013-06-04 12:30:00,
2013-06-04 08:32:00,68.4,62.1,30.04,NNW,338,0.0,0.0,80,0.00,,,0.00,WUHU216HW,2013-06-04 12:32:00,
2013-06-04 08:37:00,68.4,62.1,30.04,NNW,338,0.0,0.0,80,0.00,,,0.00,WUHU216HW,2013-06-04 12:37:00,
2013-06-04 09:00:00,69.7,62.8,30.05,NNE,23,0.0,0.0,79,0.00,,,0.00,WUHU216HW,2013-06-04 13:00:00,
2013-06-04 09:02:00,69.7,62.8,30.05,NNE,23,0.0,0.0,79,0.00,,,0.00,WUHU216HW,2013-06-04 13:02:00,
2013-06-04 09:07:00,69.7,62.8,30.05,NNE,23,0.0,0.0,79,0.00,,,0.00,WUHU216HW,2013-06-04 13:07:00,
2013-06-04 09:30:00,70.4,63.2,30.07,SSE,158,1.4,1.4,78,0.00,,,0.00,WUHU216HW,2013-06-04 13:30:00,
2013-06-04 09:32:00,70.4,63.2,30.07,SSE,158,1.4,1.4,78,0.00,,,0.00,WUHU216HW,2013-06-04 13:32:00,
2013-06-04 09:37:00,70.4,63.2,30.07,SSE,158,1.4,1.4,78,0.00,,,0.00,WUHU216HW,2013-06-04 13:37:00,
2013-06-04 10:00:00,70.9,63.3,30.08,SSW,203,0.0,0.0,77,0.00,,,0.00,WUHU216HW,2013-06-04 14:00:00,
2013-06-04 10:03:00,70.9,63.3,30.08,SSW,203,0.0,0.0,77,0.00,,,0.00,WUHU216HW,2013-06-04 14:03:00,
2013-06-04 10:08:00,70.9,63.3,30.08,SSW,203,0.0,0.0,77,0.00,,,0.00,WUHU216HW,2013-06-04 14:08:00,
2013-06-04 10:32:00,72.0,63.3,30.08,South,180,1.8,1.8,74,0.00,,,0.00,WUHU216HW,2013-06-04 14:32:00,
2013-06-04 10:37:00,72.0,63.3,30.08,South,180,1.8,1.8,74,0.00,,,0.00,WUHU216HW,2013-06-04 14:37:00,
2013-06-04 11:00:00,72.9,64.2,30.09,NW,315,0.0,0.0,74,0.00,,,0.00,WUHU216HW,2013-06-04 15:00:00,
2013-06-04 11:05:00,72.9,64.2,30.09,NW,315,0.0,0.0,74,0.00,,,0.00,WUHU216HW,2013-06-04 15:05:00,
2013-06-04 11:30:00,72.9,63.0,30.10,ENE,68,0.8,0.8,71,0.00,,,0.00,WUHU216HW,2013-06-04 15:30:00,
2013-06-04 11:35:00,72.9,63.0,30.10,ENE,68,0.8,0.8,71,0.00,,,0.00,WUHU216HW,2013-06-04 15:35:00,
2013-06-04 12:00:00,73.6,63.4,30.10,ESE,113,0.8,0.8,70,0.00,,,0.00,WUHU216HW,2013-06-04 16:00:00,
2013-06-04 12:05:00,73.6,63.4,30.10,ESE,113,0.8,0.8,70,0.00,,,0.00,WUHU216HW,2013-06-04 16:05:00,
2013-06-04 12:30:00,75.2,63.6,30.10,SW,225,2.2,2.2,67,0.00,,,0.00,WUHU216HW,2013-06-04 16:30:00,
2013-06-04 12:35:00,75.2,63.6,30.10,SW,225,2.2,2.2,67,0.00,,,0.00,WUHU216HW,2013-06-04 16:35:00,
2013-06-04 13:00:00,75.8,63.6,30.10,WSW,248,2.2,2.2,66,0.00,,,0.00,WUHU216HW,2013-06-04 17:00:00,
2013-06-04 13:05:00,75.8,63.6,30.10,WSW,248,2.2,2.2,66,0.00,,,0.00,WUHU216HW,2013-06-04 17:05:00,
2013-06-04 13:30:00,76.9,63.3,30.09,South,180,3.6,3.6,63,0.00,,,0.00,WUHU216HW,2013-06-04 17:30:00,
2013-06-04 13:35:00,76.9,63.3,30.09,South,180,3.6,3.6,63,0.00,,,0.00,WUHU216HW,2013-06-04 17:35:00,
2013-06-04 14:00:00,78.5,64.0,30.08,WSW,248,0.0,0.0,61,0.00,,,0.00,WUHU216HW,2013-06-04 18:00:00,
2013-06-04 14:05:00,78.5,64.0,30.08,WSW,248,0.0,0.0,61,0.00,,,0.00,WUHU216HW,2013-06-04 18:05:00,
2013-06-04 14:30:00,79.6,64.5,30.08,SE,135,0.8,0.8,60,0.00,,,0.00,WUHU216HW,2013-06-04 18:30:00,
2013-06-04 14:35:00,79.6,64.5,30.08,SE,135,0.8,0.8,60,0.00,,,0.00,WUHU216HW,2013-06-04 18:35:00,
2013-06-04 15:00:00,79.4,61.7,30.08,NW,315,1.4,1.4,55,0.00,,,0.00,WUHU216HW,2013-06-04 19:00:00,
2013-06-04 15:05:00,79.4,61.7,30.08,NW,315,1.4,1.4,55,0.00,,,0.00,WUHU216HW,2013-06-04 19:05:00,
2013-06-04 15:30:00,79.6,64.5,30.07,NNE,23,0.0,0.0,60,0.00,,,0.00,WUHU216HW,2013-06-04 19:30:00,
2013-06-04 15:35:00,79.6,64.5,30.07,NNE,23,0.0,0.0,60,0.00,,,0.00,WUHU216HW,2013-06-04 19:35:00,
2013-06-04 16:00:00,79.2,64.3,30.07,ESE,113,0.8,0.8,60,0.00,,,0.00,WUHU216HW,2013-06-04 20:00:00,
2013-06-04 16:05:00,79.2,64.3,30.07,ESE,113,0.8,0.8,60,0.00,,,0.00,WUHU216HW,2013-06-04 20:05:00,
2013-06-04 16:30:00,79.2,64.6,30.07,North,0,0.8,0.8,61,0.00,,,0.00,WUHU216HW,2013-06-04 20:30:00,
2013-06-04 16:35:00,79.2,64.6,30.07,North,0,0.8,0.8,61,0.00,,,0.00,WUHU216HW,2013-06-04 20:35:00,
2013-06-04 16:59:00,79.0,64.9,30.07,NNW,338,0.8,0.8,62,0.00,,,0.00,WUHU216HW,2013-06-04 20:59:00,
2013-06-04 17:00:00,79.0,64.9,30.07,NNW,338,0.8,0.8,62,0.00,,,0.00,WUHU216HW,2013-06-04 21:00:00,
2013-06-04 17:05:00,79.0,64.9,30.07,NNW,338,0.8,0.8,62,0.00,,,0.00,WUHU216HW,2013-06-04 21:05:00,
2013-06-04 17:30:00,77.9,64.8,30.07,ENE,68,2.6,2.6,64,0.00,,,0.00,WUHU216HW,2013-06-04 21:30:00,
2013-06-04 17:35:00,77.9,64.8,30.07,ENE,68,2.6,2.6,64,0.00,,,0.00,WUHU216HW,2013-06-04 21:35:00,
2013-06-04 17:59:00,78.1,65.0,30.06,North,0,0.8,0.8,64,0.00,,,0.00,WUHU216HW,2013-06-04 21:59:00,
2013-06-04 18:00:00,78.1,65.0,30.06,North,0,0.8,0.8,64,0.00,,,0.00,WUHU216HW,2013-06-04 22:00:00,
2013-06-04 18:05:00,78.1,65.0,30.06,North,0,0.8,0.8,64,0.00,,,0.00,WUHU216HW,2013-06-04 22:05:00,
2013-06-04 18:30:00,77.4,63.4,30.05,NE,45,0.4,0.4,62,0.00,,,0.00,WUHU216HW,2013-06-04 22:30:00,
2013-06-04 18:35:00,77.4,63.4,30.05,NE,45,0.4,0.4,62,0.00,,,0.00,WUHU216HW,2013-06-04 22:35:00,
2013-06-04 18:59:00,76.0,62.5,30.06,SE,135,0.0,0.0,63,0.00,,,0.00,WUHU216HW,2013-06-04 22:59:00,
2013-06-04 19:00:00,76.0,62.5,30.06,SE,135,0.0,0.0,63,0.00,,,0.00,WUHU216HW,2013-06-04 23:00:00,
2013-06-04 19:05:00,76.0,62.5,30.06,SE,135,0.0,0.0,63,0.00,,,0.00,WUHU216HW,2013-06-04 23:05:00,
2013-06-04 19:30:00,76.1,63.1,30.06,ENE,68,0.0,0.0,64,0.00,,,0.00,WUHU216HW,2013-06-04 23:30:00,
2013-06-04 19:35:00,76.1,63.1,30.06,ENE,68,0.0,0.0,64,0.00,,,0.00,WUHU216HW,2013-06-04 23:35:00,
2013-06-04 19:59:00,74.9,62.7,30.07,ENE,68,0.0,0.0,66,0.00,,,0.00,WUHU216HW,2013-06-04 23:59:00,
2013-06-04 20:00:00,74.9,62.7,30.07,ENE,68,0.0,0.0,66,0.00,,,0.00,WUHU216HW,2013-06-05 00:00:00,
2013-06-04 20:05:00,74.9,62.7,30.07,ENE,68,0.0,0.0,66,0.00,,,0.00,WUHU216HW,2013-06-05 00:05:00,
2013-06-04 20:30:00,73.4,61.8,30.08,ENE,68,0.0,0.0,67,0.00,,,0.00,WUHU216HW,2013-06-05 00:30:00,
2013-06-04 20:35:00,73.4,61.8,30.08,ENE,68,0.0,0.0,67,0.00,,,0.00,WUHU216HW,2013-06-05 00:35:00,
2013-06-04 21:00:00,73.4,62.7,30.09,ENE,68,0.0,0.0,69,0.00,,,0.00,WUHU216HW,2013-06-05 01:00:00,
2013-06-04 21:05:00,73.4,62.7,30.09,ENE,68,0.0,0.0,69,0.00,,,0.00,WUHU216HW,2013-06-05 01:05:00,
2013-06-04 21:30:00,72.9,61.7,30.10,ENE,68,0.0,0.0,68,0.00,,,0.00,WUHU216HW,2013-06-05 01:30:00,
2013-06-04 21:35:00,72.9,61.7,30.10,ENE,68,0.0,0.0,68,0.00,,,0.00,WUHU216HW,2013-06-05 01:35:00,
2013-06-04 22:00:00,70.6,59.9,30.11,ENE,68,0.0,0.0,69,0.00,,,0.00,WUHU216HW,2013-06-05 02:00:00,
2013-06-04 22:05:00,70.6,59.9,30.11,ENE,68,0.0,0.0,69,0.00,,,0.00,WUHU216HW,2013-06-05 02:05:00,
2013-06-04 22:30:00,70.4,60.5,30.11,ENE,68,0.0,0.0,71,0.00,,,0.00,WUHU216HW,2013-06-05 02:30:00,
2013-06-04 22:35:00,70.4,60.5,30.11,ENE,68,0.0,0.0,71,0.00,,,0.00,WUHU216HW,2013-06-05 02:35:00,
2013-06-04 23:00:00,69.8,59.6,30.12,ENE,68,0.0,0.0,70,0.00,,,0.00,WUHU216HW,2013-06-05 03:00:00,
2013-06-04 23:05:00,69.8,59.6,30.12,ENE,68,0.0,0.0,70,0.00,,,0.00,WUHU216HW,2013-06-05 03:05:00,
2013-06-04 23:30:00,68.8,59.4,30.12,ENE,68,0.0,0.0,72,0.00,,,0.00,WUHU216HW,2013-06-05 03:30:00,
2013-06-04 23:35:00,68.8,59.4,30.12,ENE,68,0.0,0.0,72,0.00,,,0.00,WUHU216HW,2013-06-05 03:35:00,
2013-06-04 23:59:00,68.6,59.9,30.12,ENE,68,0.0,0.0,74,0.00,,,0.00,WUHU216HW,2013-06-05 03:59:00,